This is the latest recevied weather packets stored in our database for station/object WB0OCV. If no packets are shown the sender has not sent any weather packets the latest 10 day(s).
| Time | Temp. | Humidity | Pressure | Rain* | Wind** | Luminosity | Snow |
|---|---|---|---|---|---|---|---|
| 1777474629 | 10° C | 84% | 1018.5 hPa | 0 mm | - | 345 W/m² | - |
| 1777474326 | 10.56° C | 83% | 1018.7 hPa | 0 mm | - | 359 W/m² | - |
| 1777474023 | 10.56° C | 83% | 1018.5 hPa | 0 mm | - | 491 W/m² | - |
| 1777473721 | 10° C | 83% | 1018.6 hPa | 0 mm | - | 587 W/m² | - |
| 1777473417 | 10.56° C | 83% | 1018.6 hPa | 0 mm | - | 471 W/m² | - |
| 1777473113 | 10° C | 84% | 1018.6 hPa | 0 mm | - | 489 W/m² | - |
| 1777472810 | 10° C | 84% | 1018.7 hPa | 0 mm | - | 351 W/m² | - |
| 1777472506 | 9.44° C | 86% | 1018.8 hPa | 0 mm | - | 347 W/m² | - |
| 1777472203 | 10° C | 85% | 1018.7 hPa | 0 mm | - | 316 W/m² | - |
| 1777471899 | 10° C | 84% | 1018.8 hPa | 0 mm | - | 306 W/m² | - |
| 1777471596 | 9.44° C | 85% | 1018.8 hPa | 0 mm | - | 329 W/m² | - |
| 1777471292 | 9.44° C | 85% | 1018.9 hPa | 0 mm | - | 352 W/m² | - |
| 1777470988 | 9.44° C | 85% | 1018.8 hPa | 0 mm | - | 319 W/m² | - |
| 1777470686 | 9.44° C | 85% | 1018.7 hPa | 0 mm | - | 326 W/m² | - |
| 1777470382 | 10° C | 84% | 1018.8 hPa | 0 mm | - | 316 W/m² | - |
| 1777470079 | 10° C | 84% | 1018.8 hPa | 0 mm | - | 344 W/m² | - |
| 1777469775 | 9.44° C | 86% | 1019.1 hPa | 0 mm | - | 340 W/m² | - |
| 1777469471 | 9.44° C | 86% | 1019.1 hPa | 0 mm | - | 335 W/m² | - |
| 1777469171 | 9.44° C | 87% | 1019.2 hPa | 0 mm | - | 281 W/m² | - |
| 1777468871 | 9.44° C | 88% | 1019.3 hPa | 0 mm | - | 282 W/m² | - |
| 1777468568 | 8.89° C | 89% | 1019.1 hPa | 0 mm | - | 246 W/m² | - |
| 1777468265 | 8.89° C | 89% | 1019 hPa | 0 mm | - | 223 W/m² | - |
| 1777467961 | 8.89° C | 90% | 1019.1 hPa | 0 mm | - | 239 W/m² | - |
| 1777467657 | 8.89° C | 91% | 1019.1 hPa | 0 mm | - | 175 W/m² | - |
| 1777467352 | 8.89° C | 90% | 1019 hPa | 0 mm | - | 222 W/m² | - |
* Rain latest hour (hover to see other rain measurements)
** Current wind speed in m/s (hover to see current wind gust speed)